| time (UTC) | temp F | wind direction | speed MPH | gust MPH | rain 1hr in | rain 24hr in | rain mn in | humidity % | barometer mb |
| 20260507021541 | 66 | 327 | 1.0 | 6.0 | 0.00 | 0.00 | 0.00 | 66 | 1016.4 |
| 20260507020048 | 67 | 351 | 2.0 | 7.0 | 0.00 | 0.00 | 0.00 | 64 | 1016.4 |
| 20260507014537 | 68 | 289 | 1.0 | 6.0 | 0.00 | 0.00 | 0.00 | 63 | 1016.2 |
| 20260507013044 | 69 | 267 | 1.0 | 4.0 | 0.00 | 0.00 | 0.00 | 62 | 1016.1 |
| 20260507011547 | 69 | 312 | 2.0 | 6.0 | 0.00 | 0.00 | 0.00 | 62 | 1015.9 |
| 20260507010044 | 69 | 264 | 1.0 | 9.0 | 0.00 | 0.00 | 0.00 | 61 | 1015.9 |
| 20260507004540 | 70 | 0 | 2.0 | 8.0 | 0.00 | 0.00 | 0.00 | 59 | 1015.8 |
| 20260507003049 | 72 | 234 | 2.0 | 7.0 | 0.00 | 0.00 | 0.00 | 58 | 1015.9 |
| 20260507001604 | 73 | 290 | 4.0 | 10.0 | 0.00 | 0.00 | 0.00 | 56 | 1015.7 |
| 20260507000042 | 74 | 302 | 2.0 | 6.0 | 0.00 | 0.00 | 0.00 | 53 | 1015.7 |
| 20260506234540 | 75 | 319 | 2.0 | 13.0 | 0.00 | 0.00 | 0.00 | 53 | 1015.6 |
| 20260506233040 | 75 | 337 | 2.0 | 8.0 | 0.00 | 0.00 | 0.00 | 53 | 1015.6 |
| 20260506231540 | 75 | 348 | 3.0 | 8.0 | 0.00 | 0.00 | 0.00 | 52 | 1015.5 |
| 20260506230052 | 75 | 310 | 2.0 | 10.0 | 0.00 | 0.00 | 0.00 | 52 | 1015.8 |
| 20260506224544 | 76 | 317 | 2.0 | 10.0 | 0.00 | 0.00 | 0.00 | 50 | 1015.8 |
| 20260506223041 | 76 | 229 | 1.0 | 6.0 | 0.00 | 0.00 | 0.00 | 49 | 1016.1 |
| 20260506221551 | 77 | 252 | 1.0 | 5.0 | 0.00 | 0.00 | 0.00 | 48 | 1016.1 |
| 20260506220040 | 76 | 244 | 2.0 | 6.0 | 0.00 | 0.00 | 0.00 | 49 | 1016.4 |
| 20260506214553 | 75 | 228 | 2.0 | 6.0 | 0.00 | 0.00 | 0.00 | 51 | 1016.6 |
| 20260506213037 | 73 | 189 | 2.0 | 8.0 | 0.00 | 0.00 | 0.00 | 52 | 1016.7 |
| 20260506211543 | 73 | 216 | 4.0 | 9.0 | 0.00 | 0.00 | 0.00 | 54 | 1016.8 |
| 20260506210053 | 73 | 180 | 4.0 | 10.0 | 0.00 | 0.00 | 0.00 | 54 | 1017.0 |
| 20260506204553 | 72 | 183 | 4.0 | 10.0 | 0.00 | 0.00 | 0.00 | 53 | 1017.2 |
| 20260506203042 | 71 | 187 | 4.0 | 9.0 | 0.00 | 0.00 | 0.00 | 57 | 1017.4 |
| 20260506201538 | 71 | 186 | 4.0 | 11.0 | 0.00 | 0.00 | 0.00 | 56 | 1017.5 |
| 20260506200039 | 71 | 199 | 4.0 | 9.0 | 0.00 | 0.00 | 0.00 | 58 | 1017.7 |
| 20260506194542 | 71 | 238 | 4.0 | 10.0 | 0.00 | 0.00 | 0.00 | 59 | 1017.8 |
| 20260506193044 | 70 | 196 | 4.0 | 9.0 | 0.00 | 0.00 | 0.00 | 62 | 1018.0 |
| 20260506191539 | 70 | 191 | 3.0 | 11.0 | 0.00 | 0.00 | 0.00 | 61 | 1018.1 |
| 20260506190038 | 70 | 148 | 2.0 | 9.0 | 0.00 | 0.00 | 0.00 | 61 | 1018.2 |
| 20260506184547 | 69 | 202 | 3.0 | 8.0 | 0.00 | 0.00 | 0.00 | 63 | 1018.4 |
| 20260506183044 | 69 | 130 | 4.0 | 10.0 | 0.00 | 0.00 | 0.00 | 63 | 1018.4 |
| 20260506181604 | 69 | 220 | 2.0 | 9.0 | 0.00 | 0.00 | 0.00 | 62 | 1018.4 |
| 20260506180037 | 69 | 171 | 3.0 | 10.0 | 0.00 | 0.00 | 0.00 | 63 | 1018.3 |
| 20260506174538 | 68 | 177 | 1.0 | 9.0 | 0.00 | 0.00 | 0.00 | 62 | 1018.4 |
| 20260506173046 | 69 | 186 | 3.0 | 7.0 | 0.00 | 0.00 | 0.00 | 62 | 1018.5 |
| 20260506171541 | 68 | 111 | 1.0 | 4.0 | 0.00 | 0.00 | 0.00 | 63 | 1018.5 |
| 20260506170045 | 67 | 205 | 2.0 | 7.0 | 0.00 | 0.00 | 0.00 | 64 | 1018.5 |
| 20260506164551 | 66 | 180 | 1.0 | 5.0 | 0.00 | 0.00 | 0.00 | 67 | 1018.4 |
| 20260506163042 | 65 | 165 | 1.0 | 6.0 | 0.00 | 0.00 | 0.00 | 69 | 1018.5 |
| 20260506161540 | 64 | 196 | 3.0 | 7.0 | 0.00 | 0.00 | 0.00 | 74 | 1018.5 |
| 20260506160045 | 63 | 156 | 1.0 | 7.0 | 0.00 | 0.00 | 0.00 | 79 | 1018.5 |
| 20260506154543 | 62 | 207 | 1.0 | 6.0 | 0.00 | 0.00 | 0.00 | 82 | 1018.3 |
| 20260506153037 | 61 | 61 | 1.0 | 5.0 | 0.00 | 0.00 | 0.00 | 84 | 1018.5 |
| 20260506151544 | 59 | 0 | 1.0 | 5.0 | 0.00 | 0.00 | 0.00 | 86 | 1018.5 |
| 20260506150049 | 58 | 55 | 1.0 | 4.0 | 0.00 | 0.00 | 0.00 | 86 | 1018.5 |
| 20260506144538 | 56 | 137 | 1.0 | 4.0 | 0.00 | 0.00 | 0.00 | 87 | 1018.5 |
| 20260506143040 | 55 | 0 | 0.0 | 3.0 | 0.00 | 0.00 | 0.00 | 87 | 1018.5 |
| 20260506141545 | 54 | 0 | 0.0 | 0.0 | 0.00 | 0.00 | 0.00 | 86 | 1018.3 |
| 20260506140044 | 52 | 0 | 0.0 | 0.0 | 0.00 | 0.00 | 0.00 | 86 | 1018.2 |
| 20260506134541 | 51 | 0 | 0.0 | 0.0 | 0.00 | 0.00 | 0.00 | 86 | 1018.3 |
| 20260506133050 | 51 | 0 | 0.0 | 0.0 | 0.00 | 0.00 | 0.00 | 85 | 1018.2 |
| 20260506131538 | 52 | 0 | 0.0 | 0.0 | 0.00 | 0.00 | 0.00 | 85 | 1017.9 |
| 20260506130038 | 52 | 0 | 0.0 | 0.0 | 0.00 | 0.00 | 0.00 | 85 | 1017.8 |
| 20260506124537 | 52 | 0 | 0.0 | 0.0 | 0.00 | 0.00 | 0.00 | 85 | 1017.7 |
| 20260506123044 | 52 | 0 | 0.0 | 0.0 | 0.00 | 0.00 | 0.00 | 85 | 1017.5 |
| 20260506121545 | 52 | 0 | 0.0 | 0.0 | 0.00 | 0.00 | 0.00 | 85 | 1017.5 |
| 20260506120056 | 52 | 0 | 0.0 | 0.0 | 0.00 | 0.00 | 0.00 | 84 | 1017.5 |
| 20260506114544 | 53 | 0 | 0.0 | 0.0 | 0.00 | 0.03 | 0.00 | 84 | 1017.4 |
| 20260506113037 | 53 | 0 | 0.0 | 0.0 | 0.00 | 0.03 | 0.00 | 84 | 1017.4 |
| 20260506111546 | 53 | 0 | 0.0 | 0.0 | 0.00 | 0.03 | 0.00 | 84 | 1017.1 |
| 20260506110048 | 53 | 0 | 0.0 | 0.0 | 0.00 | 0.03 | 0.00 | 83 | 1017.2 |
| 20260506104553 | 54 | 0 | 0.0 | 0.0 | 0.00 | 0.14 | 0.00 | 83 | 1017.3 |
| 20260506103044 | 54 | 0 | 0.0 | 0.0 | 0.00 | 0.14 | 0.00 | 83 | 1017.4 |
| 20260506101544 | 54 | 0 | 0.0 | 0.0 | 0.00 | 0.14 | 0.00 | 83 | 1017.3 |
| 20260506100053 | 54 | 0 | 0.0 | 0.0 | 0.00 | 0.14 | 0.00 | 82 | 1017.3 |
| 20260506094543 | 53 | 0 | 0.0 | 0.0 | 0.00 | 0.15 | 0.00 | 82 | 1017.4 |
| 20260506093040 | 54 | 0 | 0.0 | 0.0 | 0.00 | 0.15 | 0.00 | 81 | 1017.4 |
| 20260506091544 | 54 | 0 | 0.0 | 0.0 | 0.00 | 0.15 | 0.00 | 81 | 1017.4 |
| 20260506090044 | 55 | 0 | 0.0 | 0.0 | 0.00 | 0.15 | 0.00 | 81 | 1017.5 |
| 20260506084610 | 55 | 0 | 0.0 | 0.0 | 0.00 | 0.16 | 0.00 | 81 | 1017.6 |
| 20260506083045 | 55 | 0 | 0.0 | 0.0 | 0.00 | 0.16 | 0.00 | 80 | 1017.7 |
| 20260506081556 | 55 | 0 | 0.0 | 0.0 | 0.00 | 0.16 | 0.00 | 79 | 1017.7 |
| 20260506073049 | 56 | 0 | 0.0 | 0.0 | 0.00 | 0.17 | 0.00 | 78 | 1017.7 |
| 20260506071544 | 56 | 0 | 0.0 | 0.0 | 0.00 | 0.17 | 0.00 | 77 | 1017.7 |
| 20260506061537 | 58 | 0 | 0.0 | 0.0 | 0.00 | 0.20 | 0.17 | 74 | 1017.3 |
| 20260506044544 | 60 | 0 | 0.0 | 0.0 | 0.00 | 0.20 | 0.17 | 67 | 1016.5 |
| 20260506043045 | 61 | 0 | 0.0 | 1.0 | 0.00 | 0.20 | 0.17 | 66 | 1016.5 |
| 20260506041538 | 61 | 0 | 0.0 | 0.0 | 0.00 | 0.20 | 0.17 | 65 | 1016.3 |
| 20260506040040 | 62 | 0 | 0.0 | 1.0 | 0.00 | 0.20 | 0.17 | 63 | 1016.0 |
| 20260506034544 | 63 | 0 | 0.0 | 1.0 | 0.00 | 0.20 | 0.17 | 62 | 1015.8 |
| 20260506033043 | 63 | 0 | 0.0 | 2.0 | 0.00 | 0.20 | 0.17 | 60 | 1015.7 |
| 20260506031543 | 64 | 0 | 0.0 | 3.0 | 0.00 | 0.20 | 0.17 | 58 | 1015.6 |
| 20260506030040 | 64 | 0 | 0.0 | 2.0 | 0.00 | 0.20 | 0.17 | 54 | 1015.2 |
| 20260506024544 | 64 | 294 | 1.0 | 5.0 | 0.00 | 0.20 | 0.17 | 50 | 1015.0 |
| 20260506023100 | 64 | 0 | 0.0 | 3.0 | 0.00 | 0.20 | 0.17 | 50 | 1014.9 |